ZL2VAX Weather Reports


Display with metric or nautical units.
time (UTC)temp
F
wind
direction
speed
MPH
gust
MPH
rain 1hr
in
rain 24hr
in
rain mn
in
humidity
%
barometer
mb
20260510005530 61 270 21.0 30.0 0.00 0.13 0.04 82 997.7
20260510004529 60 265 16.0 34.0 0.00 0.14 0.04 80 997.9
20260510003525 61 236 13.0 27.0 0.00 0.14 0.04 79 998.8
20260510002543 60 269 12.0 23.0 0.00 0.14 0.04 80 998.8
20260510001524 60 271 18.0 29.0 0.00 0.14 0.04 81 998.9
20260510000517 60 267 18.0 36.0 0.00 0.14 0.04 81 999.0
20260509235614 60 262 16.0 29.0 0.00 0.15 0.04 81 999.0
20260509234612 60 263 16.0 24.0 0.00 0.15 0.04 81 999.4
20260509233609 60 292 19.0 36.0 0.00 0.15 0.04 81 999.4
20260509232607 60 270 14.0 23.0 0.00 0.15 0.04 83 999.4
20260509231605 60 265 9.0 17.0 0.00 0.15 0.04 85 999.2
20260509230601 60 250 17.0 22.0 0.00 0.15 0.04 83 999.5
20260509225640 59 270 18.0 27.0 0.00 0.15 0.04 85 999.3
20260509224631 59 304 15.0 27.0 0.00 0.15 0.04 86 999.2
20260509223614 59 273 17.0 24.0 0.00 0.15 0.04 87 999.0
20260509222552 58 261 18.0 27.0 0.00 0.15 0.04 88 998.8
20260509221549 57 281 19.0 34.0 0.00 0.15 0.04 89 998.5
20260509220607 57 263 18.0 29.0 0.00 0.15 0.04 89 998.8
20260509215603 57 292 19.0 30.0 0.00 0.15 0.04 90 999.0
20260509214541 57 274 16.0 25.0 0.00 0.15 0.04 89 999.2
20260509213537 56 287 16.0 25.0 0.00 0.15 0.04 90 999.3
20260509212555 57 275 14.0 27.0 0.01 0.15 0.04 91 999.5
20260509211532 56 279 16.0 27.0 0.01 0.15 0.04 91 999.4
20260509210531 56 282 18.0 25.0 0.01 0.15 0.04 91 999.5
20260509205527 56 270 15.0 25.0 0.01 0.15 0.04 91 999.5
20260509204546 55 248 13.0 20.0 0.01 0.15 0.04 92 999.7
20260509203522 55 273 12.0 23.0 0.01 0.15 0.04 92 999.9
20260509202519 55 283 12.0 23.0 0.00 0.14 0.02 92 999.6
20260509201537 55 274 16.0 23.0 0.00 0.14 0.02 91 999.4
20260509200615 55 254 15.0 21.0 0.00 0.15 0.02 90 999.1
20260509195613 55 289 21.0 27.0 0.01 0.15 0.02 89 998.8
20260509194630 55 278 20.0 30.0 0.01 0.15 0.02 89 999.2
20260509193628 54 290 14.0 25.0 0.01 0.15 0.02 91 999.9
20260509192604 54 293 9.0 20.0 0.02 0.15 0.02 90 1000.1
20260509191602 54 306 5.0 9.0 0.02 0.17 0.02 90 1000.3
20260509190619 54 313 9.0 14.0 0.02 0.17 0.02 89 1000.2
20260509185556 54 293 11.0 16.0 0.01 0.15 0.01 89 1000.0
20260509184554 54 274 8.0 14.0 0.01 0.15 0.01 90 999.9
20260509183551 54 293 9.0 16.0 0.01 0.15 0.01 90 999.8
20260509182549 54 293 8.0 11.0 0.00 0.14 0.00 90 999.9
20260509181546 54 270 11.0 18.0 0.00 0.14 0.00 89 999.9
20260509180626 54 293 4.0 9.0 0.00 0.14 0.00 88 1000.0
20260509175541 54 282 6.0 14.0 0.00 0.14 0.00 88 999.9
20260509174600 54 273 5.0 11.0 0.00 0.14 0.00 88 1000.0
20260509173536 54 308 9.0 15.0 0.00 0.14 0.00 89 1000.1
20260509172533 54 293 7.0 11.0 0.00 0.14 0.00 88 999.7
20260509171530 54 291 12.0 22.0 0.00 0.14 0.00 87 999.4
20260509170529 54 270 11.0 20.0 0.00 0.14 0.00 87 999.0
20260509165526 54 274 16.0 30.0 0.00 0.14 0.00 88 998.6
20260509164523 54 281 18.0 25.0 0.00 0.14 0.00 88 998.3
20260509163520 53 270 17.0 23.0 0.00 0.14 0.00 88 998.3
20260509162518 53 283 14.0 27.0 0.00 0.14 0.00 89 998.6
20260509161619 53 270 19.0 27.0 0.00 0.14 0.00 89 998.4
20260509160614 53 260 17.0 31.0 0.00 0.14 0.00 90 998.3
20260509155611 53 293 18.0 29.0 0.00 0.14 0.00 90 998.3
20260509154628 53 277 19.0 27.0 0.00 0.14 0.00 90 998.5
20260509153605 53 279 18.0 32.0 0.00 0.14 0.00 89 998.6
20260509152602 53 278 17.0 25.0 0.00 0.14 0.00 89 998.6
20260509151621 53 293 19.0 30.0 0.00 0.14 0.00 89 998.7
20260509150618 53 279 18.0 27.0 0.00 0.14 0.00 89 999.0
20260509145554 53 280 14.0 29.0 0.00 0.14 0.00 89 999.2
20260509144613 53 281 15.0 25.0 0.00 0.14 0.00 89 999.3
20260509143549 53 296 14.0 25.0 0.00 0.14 0.00 88 999.5
20260509142547 53 300 15.0 27.0 0.00 0.14 0.00 88 999.5
20260509141544 53 274 18.0 30.0 0.00 0.14 0.00 89 999.4
20260509140541 53 274 14.0 22.0 0.00 0.14 0.00 89 999.5
20260509135619 53 296 13.0 22.0 0.00 0.14 0.00 88 999.6
20260509134537 54 279 16.0 23.0 0.00 0.14 0.00 85 999.9
20260509133534 54 273 14.0 22.0 0.00 0.14 0.00 85 999.8
20260509132557 54 270 12.0 22.0 0.00 0.14 0.00 85 1000.0
20260509131529 54 297 13.0 22.0 0.00 0.14 0.00 83 999.9
20260509130526 54 287 10.0 17.0 0.00 0.14 0.00 84 1000.0
20260509125544 54 288 9.0 17.0 0.00 0.17 0.00 83 1000.4
20260509124542 54 306 8.0 15.0 0.00 0.17 0.00 83 1000.5
20260509123518 55 285 9.0 16.0 0.00 0.17 0.00 83 1000.5
20260509122536 55 273 8.0 17.0 0.00 0.18 0.00 83 1000.5
20260509121614 54 293 9.0 16.0 0.00 0.18 0.00 84 1000.6
20260509120611 54 277 7.0 14.0 0.00 0.20 0.00 84 1000.5
20260509115609 54 285 8.0 15.0 0.00 0.20 0.20 84 1000.7
20260509114631 54 299 6.0 14.0 0.00 0.20 0.20 84 1000.9
20260509113624 54 270 8.0 14.0 0.00 0.20 0.20 84 1000.8
20260509112642 54 298 6.0 16.0 0.00 0.20 0.20 84 1000.9
20260509111620 54 289 8.0 14.0 0.00 0.20 0.20 84 1001.1
20260509110556 54 287 7.0 14.0 0.00 0.20 0.20 84 1001.2
20260509105552 54 293 7.0 14.0 0.00 0.20 0.20 85 1001.2
20260509104550 54 290 5.0 11.0 0.00 0.20 0.20 85 1001.2
20260509103547 54 286 4.0 11.0 0.00 0.20 0.20 85 1001.3
20260509102545 54 322 4.0 11.0 0.00 0.20 0.20 85 1001.4
20260509101604 54 347 4.0 11.0 0.00 0.20 0.20 84 1001.4
20260509100540 54 307 4.0 8.0 0.00 0.20 0.20 83 1001.5
20260509095537 55 352 3.0 7.0 0.00 0.20 0.20 82 1001.4
20260509094535 54 295 3.0 6.0 0.00 0.20 0.20 82 1001.5
20260509093532 55 21 2.0 4.0 0.00 0.20 0.20 82 1001.3
20260509092551 55 278 2.0 4.0 0.00 0.20 0.20 81 1001.3
20260509091527 55 310 2.0 6.0 0.00 0.20 0.20 80 1001.3
20260509090525 55 358 2.0 4.0 0.00 0.20 0.20 80 1001.1
20260509085522 55 246 1.0 4.0 0.00 0.20 0.20 80 1001.0
20260509084519 56 268 4.0 11.0 0.00 0.21 0.20 79 1000.7
20260509083516 56 268 3.0 9.0 0.00 0.21 0.20 78 1000.6
20260509082616 56 260 6.0 15.0 0.00 0.21 0.20 79 1000.4
20260509081612 56 293 13.0 20.0 0.00 0.21 0.20 79 1000.1
20260509080650 56 283 9.0 16.0 0.00 0.21 0.20 81 1000.3
20260509075607 56 276 6.0 14.0 0.00 0.21 0.20 81 1000.7
20260509074604 56 305 8.0 18.0 0.00 0.21 0.20 81 1000.8
20260509073601 56 296 8.0 18.0 0.00 0.21 0.20 82 1000.7
20260509072619 56 275 8.0 15.0 0.00 0.21 0.20 82 1000.8
20260509071556 56 264 7.0 16.0 0.00 0.21 0.20 82 1000.7
20260509070554 56 283 8.0 16.0 0.00 0.21 0.20 82 1000.6
20260509065551 57 251 7.0 13.0 0.00 0.21 0.20 81 1000.8
20260509064548 57 256 11.0 24.0 0.00 0.21 0.20 81 1000.8
20260509063546 57 260 10.0 16.0 0.00 0.21 0.20 81 1000.9
20260509062543 57 261 10.0 21.0 0.00 0.21 0.20 84 1000.8
20260509061541 57 250 10.0 18.0 0.02 0.21 0.20 85 1000.8
20260509060538 58 250 12.0 29.0 0.02 0.21 0.20 85 1000.6
20260509055535 57 248 13.0 27.0 0.02 0.21 0.20 88 1000.5
20260509054534 58 245 10.0 20.0 0.02 0.21 0.20 88 1000.4
20260509053531 58 242 13.0 23.0 0.02 0.21 0.20 88 1000.4
20260509052548 58 280 12.0 22.0 0.02 0.21 0.20 89 1000.5
20260509051525 58 276 10.0 17.0 0.00 0.19 0.18 87 1000.3
20260509050524 58 265 9.0 17.0 0.00 0.19 0.18 87 1000.3
20260509045520 58 270 11.0 18.0 0.06 0.19 0.18 87 1000.5
20260509044517 58 278 12.0 23.0 0.07 0.19 0.18 87 1000.2
20260509043615 58 267 12.0 24.0 0.07 0.19 0.18 87 1000.1
20260509042613 58 266 9.0 16.0 0.07 0.19 0.18 88 999.9
20260509041611 58 277 11.0 22.0 0.07 0.19 0.18 89 999.8
20260509040607 57 254 13.0 22.0 0.07 0.19 0.18 90 999.9
20260509035606 59 236 18.0 29.0 0.01 0.13 0.12 86 1000.2
20260509034602 60 270 11.0 16.0 0.00 0.12 0.11 84 1000.1
20260509033559 60 268 12.0 22.0 0.00 0.12 0.11 83 1000.3
20260509032557 60 270 11.0 25.0 0.00 0.12 0.11 84 1000.3
20260509031554 60 269 9.0 16.0 0.00 0.12 0.11 84 1000.2
20260509030552 61 266 11.0 22.0 0.00 0.12 0.11 83 999.8
20260509025550 61 278 12.0 20.0 0.00 0.12 0.11 82 999.8
20260509024607 60 260 15.0 30.0 0.00 0.12 0.11 82 999.6
20260509023544 60 286 9.0 16.0 0.00 0.12 0.11 86 999.7
20260509022541 60 266 14.0 32.0 0.00 0.12 0.11 85 999.4
20260509021544 61 270 18.0 29.0 0.00 0.12 0.11 81 999.3
20260509020541 61 266 20.0 31.0 0.00 0.12 0.11 82 999.1
20260509015533 61 267 19.0 32.0 0.00 0.12 0.11 81 999.1
20260509014551 61 297 18.0 29.0 0.01 0.12 0.11 82 999.1
20260509013533 61 282 18.0 27.0 0.01 0.12 0.11 85 999.2
20260509012526 60 273 17.0 25.0 0.01 0.12 0.11 86 999.8
20260509011523 60 287 13.0 25.0 0.01 0.12 0.11 86 1000.4
20260509010522 59 273 12.0 22.0 0.01 0.12 0.11 88 1000.8